Location: Unspecified
(0.0000°N, 0.0000°E)
Time: 06:49:37
(UTC+01:00)

NATO 3D Rocket - Visible Passes

Search period start: 22 January 2017 00:00
Search period end: 01 February 2017 00:00
Orbit: 670 x 2296 km, 21.5° (Epoch: 20 January)

Date Brightness Start Highest point End Pass type
(mag) Time Alt. Az. Time Alt. Az. Time Alt. Az.
22 Jan 5.8 19:28:11 10° NW 19:40:54 47° NNE 19:50:32 10° E visible
22 Jan 4.7 21:35:00 10° WNW 21:46:34 87° NNW 21:46:34 87° NNW visible
23 Jan 6.2 06:03:00 10° S 06:04:32 11° SSE 06:06:09 10° SE visible
23 Jan 5.1 20:35:42 10° WNW 20:48:34 73° NNE 20:53:41 33° E visible
23 Jan 6.1 22:43:21 10° W 22:49:16 32° W 22:49:16 32° W visible
24 Jan 5.6 19:36:30 10° WNW 19:50:01 62° NNE 20:00:15 10° E visible
24 Jan 5.0 21:43:44 10° WNW 21:55:38 68° SSW 21:56:25 66° S visible
25 Jan 5.8 06:10:47 10° SSW 06:13:56 17° SSE 06:17:26 10° ESE visible
25 Jan 5.3 20:44:14 10° WNW 20:57:28 85° SSW 21:03:33 28° ESE visible
25 Jan 6.3 22:52:47 10° W 22:59:09 30° WSW 22:59:09 30° WSW visible
26 Jan 6.0 05:15:19 10° S 05:16:44 11° SSE 05:18:09 10° SE visible
26 Jan 5.5 19:44:55 10° WNW 19:58:56 80° NNE 20:09:37 10° ESE visible
26 Jan 5.5 21:52:50 10° W 22:04:29 50° SSW 22:06:16 46° S visible
27 Jan 5.3 06:19:11 10° SW 06:23:13 27° SSE 06:27:47 10° E visible
27 Jan 5.6 20:53:04 10° WNW 21:06:16 65° SSW 21:13:22 22° SE visible
27 Jan 6.5 23:02:36 10° WSW 23:08:57 25° SW 23:08:57 25° SW visible
28 Jan 5.6 05:23:13 11° SSW 05:26:11 18° SSE 05:29:30 10° ESE visible
28 Jan 5.7 19:53:35 10° WNW 20:07:42 80° SSW 20:18:44 10° ESE visible
28 Jan 6.0 22:02:18 10° W 22:13:24 38° SSW 22:16:00 34° S visible
29 Jan 6.1 04:30:13 12° SSE 04:30:13 12° SSE 04:31:17 10° SE visible
29 Jan 4.3 06:27:55 10° SW 06:32:26 46° SSE 06:37:34 10° E visible
29 Jan 6.1 21:02:14 10° W 21:15:03 50° SSW 21:22:59 18° SE visible
29 Jan 6.7 23:12:42 10° WSW 23:18:33 21° SW 23:18:33 21° SW visible
30 Jan 4.8 05:32:50 18° SSW 05:35:33 30° SSE 05:39:48 10° E visible
30 Jan 6.1 20:02:32 10° WNW 20:16:25 62° SSW 20:27:37 10° SE visible
30 Jan 6.3 22:12:08 10° WSW 22:22:29 30° SSW 22:25:28 26° S visible
31 Jan 5.6 04:39:54 19° SE 04:39:54 19° SE 04:42:11 10° ESE visible
31 Jan 3.3 06:36:59 10° WSW 06:41:40 87° SSE 06:46:54 10° ENE visible
31 Jan 6.4 21:11:47 10° W 21:23:59 39° SSW 21:32:17 15° SE visible
31 Jan 6.9 23:22:53 10° WSW 23:27:51 18° SSW 23:27:51 18° SSW visible
